Wahpeton, MN

10:55 AM CST on December 11, 2019 (GMT -0600)
Stern

Weather History for KBWP - October, 2019

Change the Weather History Date:

Thursday, October 24, 2019

  Actual Average (WUND) Record (WUND)
Temperature  
Mean Temperature 35 °F -  
Max Temperature 42 °F - - (-1)
Min Temperature 28 °F - - (-1)
Degree Days  
Heating Degree Days 30    
Moisture  
Dew Point 27 °F    
Average Humidity 75    
Maximum Humidity 93    
Minimum Humidity 46    
Precipitation  
Precipitation 0.00 in - - ()
Sea Level Pressure  
Sea Level Pressure 30.29 in    
Wind  
Wind Speed 5 mph ()    
Max Wind Speed 9 mph    
Max Gust Speed -    
Visibility 9.6 miles    
Events      
Averages and records for this station are not official NWS values.
T = Trace of Precipitation, MM = Missing Value Source: Averaged Metar Reports

Daily Weather History Graph

Daily Weather History Graph

Search for Another Location

Airport or City:

Astronomy

Oct. 24, 2019 Rise Set
Actual Time 7:55 AM CDT 6:24 PM CDT
Civil Twilight 7:25 AM CDT 6:55 PM CDT
Nautical Twilight 6:49 AM CDT 7:30 PM CDT
Astronomical Twilight 6:15 AM CDT 8:05 PM CDT
Moon 3:06 AM CDT (10/24) 5:10 PM CDT (10/24)
Length of Visible Light 11h 30m
Length of Day
10h 28m
Waning Crescent, 16% of the Moon is Illuminated
Oct 24
Waning Crescent
Oct 27
New
Nov 4
First Quarter
Nov 12
Full
Nov 19
Last Quarter

Hourly Weather History & Observations

Time (CDT) Temp. Windchill Dew Point Humidity Pressure Visibility Wind Dir Wind Speed Gust Speed Precip Events Conditions
12:15 AM 32.0 °F 24.2 °F 28.4 °F 87% 30.21 in 10.0 mi West 9.2 mph - N/A   Unknown
12:35 AM 32.0 °F 25.6 °F 26.6 °F 80% 30.22 in 10.0 mi West 6.9 mph - N/A   Unknown
12:55 AM 32.0 °F 27.5 °F 28.4 °F 87% 30.22 in 10.0 mi West 4.6 mph - N/A   Unknown
1:15 AM 32.0 °F 24.8 °F 28.4 °F 87% 30.22 in 10.0 mi West 8.1 mph - N/A   Unknown
1:35 AM 32.0 °F 28.7 °F 28.4 °F 87% 30.23 in 10.0 mi WNW 3.5 mph - N/A   Unknown
1:55 AM 32.0 °F 27.5 °F 28.4 °F 87% 30.23 in 10.0 mi WNW 4.6 mph - N/A   Unknown
2:15 AM 32.0 °F 28.7 °F 28.4 °F 87% 30.23 in 10.0 mi NW 3.5 mph - N/A   Unknown
2:35 AM 32.0 °F 27.5 °F 28.4 °F 87% 30.23 in 10.0 mi NW 4.6 mph - N/A   Unknown
2:55 AM 32.0 °F 26.4 °F 28.4 °F 87% 30.24 in 10.0 mi WNW 5.8 mph - N/A   Unknown
3:15 AM 32.0 °F 26.4 °F 28.4 °F 87% 30.24 in 10.0 mi WNW 5.8 mph - N/A   Unknown
3:35 AM 32.0 °F 26.4 °F 28.4 °F 87% 30.25 in 10.0 mi WNW 5.8 mph - N/A   Unknown
3:55 AM 32.0 °F 28.7 °F 28.4 °F 87% 30.26 in 10.0 mi WNW 3.5 mph - N/A   Unknown
4:15 AM 32.0 °F 26.4 °F 26.6 °F 80% 30.27 in 10.0 mi NNW 5.8 mph - N/A   Unknown
4:35 AM 32.0 °F 26.4 °F 26.6 °F 80% 30.28 in 10.0 mi NNW 5.8 mph - N/A   Unknown
4:55 AM 32.0 °F 27.5 °F 26.6 °F 80% 30.28 in 10.0 mi NNW 4.6 mph - N/A   Unknown
5:15 AM 32.0 °F 27.5 °F 24.8 °F 75% 30.28 in 10.0 mi NNW 4.6 mph - N/A   Unknown
5:35 AM 30.2 °F 26.7 °F 26.6 °F 86% 30.28 in 10.0 mi NNW 3.5 mph - N/A   Unknown
6:15 AM 30.2 °F 26.7 °F 26.6 °F 86% 30.29 in 10.0 mi NNW 3.5 mph - N/A   Unknown
6:35 AM 28.4 °F - 24.8 °F 86% 30.30 in 10.0 mi Calm Calm - N/A   Unknown
6:55 AM 30.2 °F - 26.6 °F 86% 30.31 in 10.0 mi Calm Calm - N/A   Unknown
7:15 AM 28.4 °F 23.3 °F 26.6 °F 93% 30.31 in 10.0 mi West 4.6 mph - N/A   Unknown
7:35 AM 28.4 °F 24.6 °F 26.6 °F 93% 30.31 in 10.0 mi West 3.5 mph - N/A   Unknown
7:55 AM 28.4 °F 24.6 °F 24.8 °F 86% 30.32 in 10.0 mi West 3.5 mph - N/A   Unknown
8:15 AM 28.4 °F 23.3 °F 24.8 °F 86% 30.33 in 10.0 mi West 4.6 mph - N/A   Unknown
8:35 AM 28.4 °F 24.6 °F 24.8 °F 86% 30.34 in 10.0 mi West 3.5 mph - N/A   Unknown
9:15 AM 32.0 °F 25.6 °F 28.4 °F 87% 30.36 in 10.0 mi West 6.9 mph - N/A   Unknown
9:35 AM 32.0 °F 27.5 °F 28.4 °F 87% 30.36 in 10.0 mi West 4.6 mph - N/A   Unknown
9:55 AM 32.0 °F 25.6 °F 28.4 °F 87% 30.36 in 10.0 mi WNW 6.9 mph - N/A   Unknown
10:15 AM 32.0 °F 26.4 °F 28.4 °F 87% 30.36 in 10.0 mi West 5.8 mph - N/A   Unknown
10:35 AM 33.8 °F 28.6 °F 28.4 °F 81% 30.36 in 10.0 mi WNW 5.8 mph - N/A   Unknown
10:55 AM 33.8 °F 29.6 °F 28.4 °F 81% 30.36 in 10.0 mi West 4.6 mph - N/A   Unknown
11:15 AM 35.6 °F 31.7 °F 28.4 °F 75% 30.36 in 10.0 mi West 4.6 mph - N/A   Unknown
11:35 AM 35.6 °F 31.7 °F 26.6 °F 70% 30.36 in 10.0 mi WSW 4.6 mph - N/A   Unknown
11:55 AM 37.4 °F 33.8 °F 26.6 °F 65% 30.36 in 10.0 mi West 4.6 mph - N/A   Unknown
12:15 PM 37.4 °F 33.8 °F 26.6 °F 65% 30.36 in 10.0 mi WNW 4.6 mph - N/A   Unknown
12:35 PM 37.4 °F 34.9 °F 26.6 °F 65% 30.35 in 10.0 mi WNW 3.5 mph - N/A   Unknown
12:55 PM 39.2 °F 34.2 °F 26.6 °F 61% 30.35 in 10.0 mi West 6.9 mph - N/A   Unknown
1:15 PM 39.2 °F 35.9 °F 26.6 °F 61% 30.34 in 10.0 mi WNW 4.6 mph - N/A   Unknown
1:35 PM 41.0 °F 36.4 °F 26.6 °F 57% 30.34 in 10.0 mi WSW 6.9 mph - N/A   Unknown
1:55 PM 41.0 °F 38.0 °F 24.8 °F 53% 30.33 in 10.0 mi SW 4.6 mph - N/A   Unknown
2:15 PM 41.0 °F 36.4 °F 26.6 °F 57% 30.32 in 10.0 mi WSW 6.9 mph - N/A   Unknown
2:35 PM 41.0 °F 39.0 °F 24.8 °F 53% 30.31 in 10.0 mi SSW 3.5 mph - N/A   Unknown
2:55 PM 42.8 °F - 26.6 °F 53% 30.31 in 10.0 mi Calm Calm - N/A   Unknown
3:15 PM 42.8 °F 38.6 °F 26.6 °F 53% 30.31 in 10.0 mi West 6.9 mph - N/A   Unknown
3:35 PM 42.8 °F 41.1 °F 24.8 °F 49% 30.31 in 10.0 mi West 3.5 mph - N/A   Unknown
3:55 PM 42.8 °F - 24.8 °F 49% 30.30 in 10.0 mi Calm Calm - N/A   Unknown
4:15 PM 42.8 °F 38.0 °F 23.0 °F 46% 30.30 in 10.0 mi WSW 8.1 mph - N/A   Unknown
4:35 PM 42.8 °F 39.3 °F 23.0 °F 46% 30.30 in 10.0 mi SSW 5.8 mph - N/A   Unknown
4:55 PM 42.8 °F 40.1 °F 24.8 °F 49% 30.29 in 10.0 mi SSW 4.6 mph - N/A   Unknown
5:15 PM 42.8 °F 40.1 °F 26.6 °F 53% 30.29 in 10.0 mi SW 4.6 mph - N/A   Unknown
5:35 PM 42.8 °F 40.1 °F 26.6 °F 53% 30.28 in 10.0 mi SSW 4.6 mph - N/A   Unknown
5:55 PM 41.0 °F 39.0 °F 26.6 °F 57% 30.28 in 10.0 mi SSW 3.5 mph - N/A   Unknown
6:15 PM 41.0 °F 38.0 °F 26.6 °F 57% 30.28 in 10.0 mi South 4.6 mph - N/A   Unknown
6:35 PM 37.4 °F 33.8 °F 28.4 °F 70% 30.27 in 10.0 mi South 4.6 mph - N/A   Unknown
6:55 PM 35.6 °F 31.7 °F 30.2 °F 81% 30.27 in 10.0 mi SSE 4.6 mph - N/A   Unknown
7:15 PM 37.4 °F 32.8 °F 28.4 °F 70% 30.27 in 10.0 mi SSE 5.8 mph - N/A   Unknown
7:35 PM 35.6 °F 29.9 °F 28.4 °F 75% 30.27 in 10.0 mi SSE 6.9 mph - N/A   Unknown
7:55 PM 35.6 °F 30.7 °F 28.4 °F 75% 30.27 in 2.0 mi SE 5.8 mph - N/A   Unknown
8:35 PM 35.6 °F 30.7 °F 28.4 °F 75% 30.28 in 2.5 mi SE 5.8 mph - N/A   Unknown
8:55 PM 35.6 °F 31.7 °F 28.4 °F 75% 30.28 in 5.0 mi SE 4.6 mph - N/A   Unknown
9:15 PM 33.8 °F 29.6 °F 28.4 °F 81% 30.27 in 2.5 mi SE 4.6 mph - N/A   Unknown
9:35 PM 33.8 °F 30.8 °F 28.4 °F 81% 30.28 in 10.0 mi SSE 3.5 mph - N/A   Unknown
9:55 PM 32.0 °F 26.4 °F 28.4 °F 87% 30.28 in 10.0 mi South 5.8 mph - N/A   Unknown
10:15 PM 32.0 °F 26.4 °F 26.6 °F 80% 30.27 in 10.0 mi South 5.8 mph - N/A   Unknown
10:35 PM 32.0 °F 27.5 °F 28.4 °F 87% 30.26 in 10.0 mi SSE 4.6 mph - N/A   Unknown
10:55 PM 32.0 °F 27.5 °F 28.4 °F 87% 30.26 in 10.0 mi SSE 4.6 mph - N/A   Unknown
11:15 PM 32.0 °F 27.5 °F 28.4 °F 87% 30.26 in 10.0 mi SSE 4.6 mph - N/A   Unknown
11:35 PM 32.0 °F 25.6 °F 28.4 °F 87% 30.26 in 7.0 mi SSE 6.9 mph - N/A   Unknown
11:55 PM 32.0 °F 26.4 °F 28.4 °F 87% 30.26 in 10.0 mi SSE 5.8 mph - N/A   Unknown